• In Hungary
  • List of Countries
  • For 7 days
  • Water Temperature
  • Satellite Maps
  • Weather Map
  • News
  • Weather Widgets
  • user-avatar
    Login

    Hourly Weather Milakowo

    Today, 14 August, Tuesday

    Time Temperature Precipitation Wind Pressure Humidity
    00:00 +18°C° 0 mm 3 mps 748 mmHg 80%
    01:00 +18°C° 0 mm 3 mps 748 mmHg 79%
    02:00 +17°C° 0.1 mm 3 mps 748 mmHg 80%
    03:00 +17°C° 0.1 mm 3 mps 748 mmHg 81%
    04:00 +17°C° 0.1 mm 3 mps 748 mmHg 82%
    05:00 +18°C° 0.3 mm 2 mps 748 mmHg 82%
    06:00 +19°C° 0.3 mm 2 mps 748 mmHg 83%
    07:00 +20°C° 0 mm 2 mps 748 mmHg 83%
    08:00 +21°C° 0.5 mm 2 mps 748 mmHg 81%
    09:00 +23°C° 0.5 mm 2 mps 748 mmHg 79%
    10:00 +23°C° 0.5 mm 2 mps 748 mmHg 77%
    11:00 +24°C° 0.2 mm 2 mps 748 mmHg 74%
    12:00 +25°C° 0.2 mm 3 mps 748 mmHg 71%
    13:00 +26°C° 0.2 mm 3 mps 748 mmHg 68%
    14:00 +26°C° 0.5 mm 4 mps 748 mmHg 68%
    15:00 +26°C° 0.5 mm 4 mps 748 mmHg 68%
    16:00 +26°C° 0.5 mm 4 mps 748 mmHg 67%
    17:00 +24°C° 0.1 mm 3 mps 748 mmHg 72%
    18:00 +22°C° 0.1 mm 3 mps 748 mmHg 77%
    19:00 +21°C° 0.1 mm 2 mps 748 mmHg 81%
    20:00 +20°C° 0 mm 2 mps 748 mmHg 84%
    21:00 +20°C° 0 mm 1 mps 748 mmHg 86%
    22:00 +19°C° 0 mm 1 mps 748 mmHg 89%
    23:00 +19°C° 0 mm 1 mps 748 mmHg 89%

    Tomorrow, 15 August, Wednesday

    Time Temperature Precipitation Wind Pressure Humidity
    00:00 +17°C° 0 mm 2 mps 748 mmHg 90%
    01:00 +17°C° 0 mm 3 mps 748 mmHg 91%
    02:00 +17°C° 0 mm 3 mps 748 mmHg 92%
    03:00 +17°C° 0 mm 3 mps 748 mmHg 92%
    04:00 +16°C° 0 mm 3 mps 748 mmHg 93%
    05:00 +17°C° 0 mm 4 mps 749 mmHg 90%
    06:00 +17°C° 0 mm 5 mps 749 mmHg 87%
    07:00 +19°C° 0 mm 5 mps 749 mmHg 84%
    08:00 +20°C° 0.1 mm 5 mps 750 mmHg 81%
    09:00 +20°C° 0.1 mm 5 mps 750 mmHg 78%
    10:00 +21°C° 0.1 mm 6 mps 750 mmHg 76%
    11:00 +22°C° 0.1 mm 6 mps 751 mmHg 72%
    12:00 +22°C° 0.1 mm 6 mps 751 mmHg 69%
    13:00 +23°C° 0.1 mm 6 mps 751 mmHg 66%
    14:00 +23°C° 0.2 mm 5 mps 751 mmHg 67%
    15:00 +22°C° 0.2 mm 5 mps 752 mmHg 69%
    16:00 +22°C° 0.2 mm 5 mps 752 mmHg 70%
    17:00 +21°C° 0 mm 4 mps 752 mmHg 75%
    18:00 +19°C° 0 mm 4 mps 752 mmHg 79%
    19:00 +18°C° 0 mm 3 mps 753 mmHg 84%
    20:00 +17°C° 0 mm 3 mps 753 mmHg 86%
    21:00 +16°C° 0 mm 3 mps 753 mmHg 88%
    22:00 +16°C° 0 mm 2 mps 754 mmHg 90%
    23:00 +15°C° 0 mm 2 mps 754 mmHg 91%

    Day after tomorrow, 16 August, Thursday

    Time Temperature Precipitation Wind Pressure Humidity
    00:00 +14°C° 0 mm 3 mps 754 mmHg 92%
    01:00 +14°C° 0 mm 3 mps 754 mmHg 94%
    02:00 +14°C° 0 mm 3 mps 754 mmHg 94%
    03:00 +14°C° 0 mm 3 mps 754 mmHg 95%
    04:00 +15°C° 0 mm 2 mps 755 mmHg 95%
    05:00 +16°C° 0 mm 2 mps 755 mmHg 92%
    06:00 +17°C° 0 mm 2 mps 755 mmHg 88%
    07:00 +19°C° 0 mm 2 mps 755 mmHg 85%
    08:00 +20°C° 0 mm 2 mps 755 mmHg 79%
    09:00 +21°C° 0 mm 2 mps 756 mmHg 74%
    10:00 +23°C° 0 mm 2 mps 756 mmHg 69%
    11:00 +24°C° 0.1 mm 2 mps 756 mmHg 67%
    12:00 +25°C° 0.1 mm 2 mps 756 mmHg 64%
    13:00 +25°C° 0.1 mm 2 mps 755 mmHg 62%
    14:00 +25°C° 0.1 mm 2 mps 755 mmHg 62%
    15:00 +25°C° 0.1 mm 2 mps 755 mmHg 63%
    16:00 +25°C° 0.1 mm 2 mps 755 mmHg 64%
    17:00 +24°C° 0.1 mm 2 mps 755 mmHg 71%
    18:00 +21°C° 0.1 mm 2 mps 755 mmHg 78%
    19:00 +20°C° 0.1 mm 2 mps 755 mmHg 84%
    20:00 +19°C° 0 mm 2 mps 755 mmHg 87%
    21:00 +19°C° 0 mm 2 mps 755 mmHg 89%
    22:00 +18°C° 0 mm 2 mps 756 mmHg 92%
    23:00 +18°C° 0 mm 2 mps 755 mmHg 92%

    17 August, Friday

    Time Temperature Precipitation Wind Pressure Humidity
    00:00 +17°C° 0 mm 2 mps 755 mmHg 93%
    01:00 +17°C° 0 mm 2 mps 755 mmHg 94%
    02:00 +17°C° 0 mm 2 mps 755 mmHg 94%
    03:00 +17°C° 0 mm 2 mps 755 mmHg 94%
    04:00 +16°C° 0 mm 2 mps 755 mmHg 94%
    05:00 +18°C° 0 mm 2 mps 755 mmHg 91%
    06:00 +19°C° 0 mm 2 mps 755 mmHg 87%
    07:00 +20°C° 0 mm 2 mps 755 mmHg 83%
    08:00 +21°C° 0 mm 2 mps 755 mmHg 77%
    09:00 +24°C° 0 mm 2 mps 755 mmHg 70%
    10:00 +25°C° 0 mm 2 mps 755 mmHg 64%
    11:00 +26°C° 0 mm 2 mps 755 mmHg 61%
    12:00 +27°C° 0 mm 2 mps 754 mmHg 57%
    13:00 +28°C° 0 mm 3 mps 754 mmHg 54%
    14:00 +27°C° 0 mm 2 mps 754 mmHg 55%
    15:00 +27°C° 0 mm 2 mps 754 mmHg 55%
    16:00 +27°C° 0 mm 2 mps 753 mmHg 56%
    17:00 +26°C° 0 mm 2 mps 753 mmHg 61%
    18:00 +24°C° 0 mm 2 mps 753 mmHg 67%
    19:00 +23°C° 0 mm 2 mps 753 mmHg 72%
    20:00 +21°C° 0 mm 2 mps 753 mmHg 73%
    21:00 +20°C° 0 mm 3 mps 753 mmHg 75%
    22:00 +19°C° 0 mm 3 mps 753 mmHg 76%
    23:00 +19°C° 0 mm 3 mps 754 mmHg 77%

    18 August, Saturday

    Time Temperature Precipitation Wind Pressure Humidity
    00:00 +19°C° 0 mm 3 mps 754 mmHg 77%
    01:00 +18°C° 0 mm 3 mps 754 mmHg 77%
    02:00 +18°C° 0 mm 3 mps 754 mmHg 77%
    03:00 +18°C° 0 mm 2 mps 754 mmHg 78%
    04:00 +18°C° 0 mm 2 mps 754 mmHg 78%
    05:00 +19°C° 0 mm 2 mps 754 mmHg 77%
    06:00 +20°C° 0 mm 2 mps 754 mmHg 75%
    07:00 +21°C° 0 mm 2 mps 754 mmHg 74%
    08:00 +23°C° 0 mm 2 mps 754 mmHg 71%
    09:00 +24°C° 0 mm 2 mps 755 mmHg 69%
    10:00 +25°C° 0 mm 2 mps 755 mmHg 66%
    11:00 +25°C° 0.2 mm 3 mps 755 mmHg 67%
    12:00 +25°C° 0.2 mm 3 mps 754 mmHg 67%
    13:00 +25°C° 0.2 mm 4 mps 754 mmHg 68%
    14:00 +25°C° 0.3 mm 4 mps 754 mmHg 68%
    15:00 +23°C° 0.3 mm 4 mps 755 mmHg 67%
    16:00 +24°C° 0.3 mm 3 mps 755 mmHg 67%
    17:00 +21°C° 0 mm 3 mps 755 mmHg 71%
    18:00 +20°C° 0 mm 3 mps 755 mmHg 75%
    19:00 +18°C° 0 mm 2 mps 755 mmHg 80%
    20:00 +17°C° 0 mm 2 mps 755 mmHg 81%
    21:00 +17°C° 0 mm 2 mps 755 mmHg 83%
    22:00 +16°C° 0 mm 1 mps 756 mmHg 85%
    23:00 +16°C° 0 mm 2 mps 756 mmHg 84%

    19 August, Sunday

    Time Temperature Precipitation Wind Pressure Humidity
    00:00 +16°C° 0 mm 2 mps 756 mmHg 82%
    01:00 +16°C° 0 mm 2 mps 756 mmHg 81%
    02:00 +16°C° 0 mm 3 mps 756 mmHg 82%
    03:00 +16°C° 0 mm 3 mps 756 mmHg 83%
    04:00 +14°C° 0 mm 3 mps 756 mmHg 83%
    05:00 +17°C° 0 mm 3 mps 756 mmHg 80%
    06:00 +18°C° 0 mm 3 mps 756 mmHg 76%
    07:00 +19°C° 0 mm 4 mps 756 mmHg 73%
    08:00 +21°C° 0 mm 4 mps 756 mmHg 67%
    09:00 +22°C° 0 mm 4 mps 756 mmHg 61%
    10:00 +25°C° 0 mm 4 mps 756 mmHg 56%
    11:00 +25°C° 0 mm 4 mps 756 mmHg 54%
    12:00 +26°C° 0 mm 4 mps 755 mmHg 53%
    13:00 +27°C° 0 mm 4 mps 755 mmHg 51%
    14:00 +27°C° 0 mm 4 mps 755 mmHg 53%
    15:00 +27°C° 0 mm 4 mps 755 mmHg 55%
    16:00 +26°C° 0 mm 3 mps 754 mmHg 57%
    17:00 +25°C° 0.1 mm 3 mps 754 mmHg 64%
    18:00 +23°C° 0.1 mm 2 mps 754 mmHg 71%
    19:00 +20°C° 0.1 mm 2 mps 754 mmHg 78%
    20:00 +20°C° 0 mm 2 mps 754 mmHg 80%
    21:00 +19°C° 0 mm 2 mps 754 mmHg 82%
    22:00 +19°C° 0 mm 2 mps 754 mmHg 84%
    23:00 +19°C° 0 mm 2 mps 754 mmHg 85%
    Show more